| time (UTC) | temp F | wind direction | speed MPH | gust MPH | rain 1hr in | rain 24hr in | rain mn in | humidity % | barometer mb |
| 20260903093257 | 74 | 222 | 2.0 | 3.0 | 0.00 | 0.01 | 0.00 | 66 | 1022.3 |
| 20260903092757 | 74 | 211 | 2.0 | 2.0 | 0.00 | 0.01 | 0.00 | 67 | 1022.5 |
| 20260903092257 | 73 | 210 | 1.0 | 2.0 | 0.00 | 0.01 | 0.00 | 67 | 1022.5 |
| 20260903091757 | 73 | 257 | 2.0 | 2.0 | 0.00 | 0.01 | 0.00 | 69 | 1022.5 |
| 20260903091257 | 72 | 257 | 2.0 | 5.0 | 0.00 | 0.01 | 0.00 | 70 | 1022.6 |
| 20260903090757 | 72 | 257 | 2.0 | 5.0 | 0.00 | 0.01 | 0.00 | 72 | 1022.6 |
| 20260903090257 | 71 | 269 | 1.0 | 5.0 | 0.00 | 0.01 | 0.00 | 72 | 1022.6 |
| 20260903085757 | 71 | 260 | 2.0 | 5.0 | 0.00 | 0.01 | 0.00 | 71 | 1022.5 |
| 20260903085257 | 70 | 4 | 2.0 | 2.0 | 0.00 | 0.01 | 0.00 | 74 | 1022.5 |
| 20260903084758 | 70 | 4 | 2.0 | 3.0 | 0.00 | 0.01 | 0.00 | 74 | 1022.5 |
| 20260903083757 | 69 | 4 | 1.0 | 2.0 | 0.00 | 0.01 | 0.00 | 77 | 1022.6 |
| 20260903083258 | 68 | 4 | 1.0 | 2.0 | 0.00 | 0.01 | 0.00 | 78 | 1022.6 |
| 20260903082757 | 68 | 4 | 2.0 | 3.0 | 0.00 | 0.01 | 0.00 | 77 | 1022.6 |
| 20260903082257 | 68 | 4 | 2.0 | 5.0 | 0.00 | 0.01 | 0.00 | 78 | 1022.6 |
| 20260903081757 | 67 | 3 | 2.0 | 5.0 | 0.00 | 0.01 | 0.00 | 79 | 1022.6 |
| 20260903081257 | 67 | 351 | 2.0 | 5.0 | 0.00 | 0.01 | 0.00 | 79 | 1022.5 |
| 20260903080257 | 66 | 10 | 2.0 | 5.0 | 0.00 | 0.01 | 0.00 | 82 | 1022.5 |
| 20260903075757 | 65 | 9 | 1.0 | 3.0 | 0.00 | 0.01 | 0.00 | 83 | 1022.4 |
| 20260903075257 | 65 | 9 | 0.0 | 2.0 | 0.00 | 0.01 | 0.00 | 85 | 1022.4 |
| 20260903074757 | 65 | 9 | 1.0 | 2.0 | 0.00 | 0.01 | 0.00 | 85 | 1022.4 |
| 20260903074257 | 65 | 9 | 1.0 | 2.0 | 0.00 | 0.01 | 0.00 | 86 | 1022.8 |
| 20260903073757 | 64 | 9 | 1.0 | 3.0 | 0.00 | 0.01 | 0.00 | 86 | 1022.8 |
| 20260903073257 | 64 | 9 | 0.0 | 3.0 | 0.00 | 0.01 | 0.00 | 87 | 1022.8 |
| 20260903072758 | 64 | 9 | 0.0 | 3.0 | 0.00 | 0.01 | 0.00 | 88 | 1022.9 |
| 20260903072257 | 64 | 9 | 0.0 | 1.0 | 0.00 | 0.01 | 0.00 | 88 | 1022.9 |
| 20260903071757 | 63 | 9 | 1.0 | 2.0 | 0.00 | 0.01 | 0.00 | 88 | 1022.9 |
| 20260903071257 | 63 | 9 | 1.0 | 2.0 | 0.00 | 0.01 | 0.00 | 88 | 1022.8 |
| 20260903070757 | 63 | 9 | 1.0 | 2.0 | 0.00 | 0.01 | 0.00 | 89 | 1022.8 |
| 20260903065757 | 62 | 2 | 1.0 | 2.0 | 0.00 | 0.01 | 0.00 | 90 | 1022.8 |
| 20260903065258 | 62 | 358 | 2.0 | 2.0 | 0.00 | 0.01 | 0.00 | 90 | 1022.8 |
| 20260903064757 | 62 | 358 | 2.0 | 3.0 | 0.00 | 0.01 | 0.00 | 90 | 1022.8 |
| 20260903064257 | 62 | 348 | 2.0 | 3.0 | 0.00 | 0.01 | 0.00 | 90 | 1022.8 |
| 20260903063758 | 62 | 305 | 1.0 | 3.0 | 0.00 | 0.01 | 0.00 | 90 | 1022.8 |
| 20260903062758 | 62 | 5 | 0.0 | 3.0 | 0.00 | 0.01 | 0.00 | 91 | 1022.7 |
| 20260903062258 | 62 | 8 | 0.0 | 2.0 | 0.00 | 0.01 | 0.00 | 91 | 1022.7 |
| 20260903061758 | 61 | 8 | 1.0 | 2.0 | 0.00 | 0.01 | 0.00 | 91 | 1022.7 |
| 20260903060758 | 61 | 8 | 1.0 | 6.0 | 0.00 | 0.01 | 0.00 | 91 | 1022.7 |
| 20260903060258 | 61 | 9 | 0.0 | 6.0 | 0.00 | 0.01 | 0.00 | 91 | 1022.7 |
| 20260903055757 | 61 | 4 | 1.0 | 5.0 | 0.00 | 0.01 | 0.00 | 91 | 1022.5 |
| 20260903055258 | 61 | 292 | 1.0 | 3.0 | 0.00 | 0.01 | 0.00 | 91 | 1022.5 |
| 20260903054758 | 61 | 292 | 2.0 | 3.0 | 0.00 | 0.01 | 0.00 | 91 | 1022.5 |
| 20260903054258 | 61 | 297 | 2.0 | 3.0 | 0.00 | 0.01 | 0.00 | 90 | 1022.4 |
| 20260903053758 | 61 | 297 | 2.0 | 3.0 | 0.00 | 0.01 | 0.00 | 90 | 1022.4 |
| 20260903053258 | 61 | 326 | 1.0 | 3.0 | 0.00 | 0.01 | 0.00 | 90 | 1022.4 |
| 20260903052757 | 61 | 2 | 1.0 | 2.0 | 0.00 | 0.01 | 0.00 | 90 | 1022.3 |
| 20260903052257 | 61 | 2 | 1.0 | 2.0 | 0.00 | 0.01 | 0.00 | 90 | 1022.3 |
| 20260903051758 | 61 | 2 | 2.0 | 2.0 | 0.00 | 0.01 | 0.00 | 90 | 1022.3 |
| 20260903050758 | 61 | 2 | 2.0 | 5.0 | 0.00 | 0.01 | 0.00 | 90 | 1022.1 |
| 20260903050258 | 61 | 2 | 2.0 | 5.0 | 0.00 | 0.01 | 0.00 | 90 | 1022.1 |
| 20260903045757 | 61 | 341 | 2.0 | 3.0 | 0.00 | 0.01 | 0.00 | 90 | 1021.9 |
| 20260903045257 | 61 | 351 | 2.0 | 5.0 | 0.00 | 0.01 | 0.00 | 90 | 1021.9 |
| 20260903044758 | 61 | 352 | 1.0 | 5.0 | 0.00 | 0.01 | 0.00 | 90 | 1021.9 |
| 20260903043758 | 62 | 265 | 0.0 | 2.0 | 0.00 | 0.01 | 0.00 | 90 | 1021.8 |
| 20260903043258 | 62 | 265 | 0.0 | 2.0 | 0.00 | 0.01 | 0.00 | 90 | 1021.8 |
| 20260903042759 | 62 | 265 | 1.0 | 2.0 | 0.00 | 0.01 | 0.00 | 90 | 1021.7 |
| 20260903041758 | 62 | 265 | 1.0 | 2.0 | 0.00 | 0.01 | 0.00 | 90 | 1021.7 |
| 20260903040757 | 62 | 265 | 0.0 | 5.0 | 0.00 | 0.01 | 0.00 | 89 | 1021.8 |
| 20260903040258 | 62 | 265 | 0.0 | 5.0 | 0.00 | 0.01 | 0.00 | 89 | 1021.8 |
| 20260903035757 | 62 | 3 | 0.0 | 2.0 | 0.00 | 0.01 | 0.00 | 89 | 1021.6 |
| 20260903034257 | 62 | 3 | 1.0 | 2.0 | 0.00 | 0.01 | 0.00 | 89 | 1021.8 |
| 20260903033258 | 62 | 3 | 2.0 | 5.0 | 0.00 | 0.01 | 0.00 | 89 | 1021.8 |
| 20260903032759 | 63 | 9 | 2.0 | 5.0 | 0.00 | 0.01 | 0.00 | 89 | 1021.7 |
| 20260903031758 | 63 | 1 | 1.0 | 5.0 | 0.00 | 0.01 | 0.00 | 89 | 1021.7 |
| 20260903031258 | 63 | 354 | 0.0 | 3.0 | 0.00 | 0.01 | 0.00 | 89 | 1021.7 |
| 20260903030758 | 63 | 354 | 1.0 | 3.0 | 0.00 | 0.01 | 0.00 | 89 | 1021.7 |
| 20260903025758 | 63 | 7 | 2.0 | 5.0 | 0.00 | 0.01 | 0.00 | 89 | 1021.8 |
| 20260903025257 | 63 | 7 | 1.0 | 5.0 | 0.00 | 0.01 | 0.00 | 89 | 1021.8 |
| 20260903024758 | 63 | 337 | 1.0 | 3.0 | 0.00 | 0.01 | 0.00 | 88 | 1021.8 |
| 20260903024258 | 63 | 305 | 1.0 | 2.0 | 0.00 | 0.01 | 0.00 | 88 | 1021.9 |
| 20260903023758 | 63 | 305 | 1.0 | 2.0 | 0.00 | 0.01 | 0.00 | 89 | 1021.9 |
| 20260903023258 | 64 | 305 | 1.0 | 2.0 | 0.00 | 0.01 | 0.00 | 89 | 1021.9 |
| 20260903022758 | 64 | 305 | 2.0 | 3.0 | 0.00 | 0.01 | 0.00 | 88 | 1021.8 |
| 20260903022259 | 64 | 302 | 2.0 | 6.0 | 0.00 | 0.01 | 0.00 | 88 | 1021.8 |
| 20260903021758 | 64 | 348 | 2.0 | 6.0 | 0.00 | 0.01 | 0.00 | 88 | 1021.8 |
| 20260903021258 | 64 | 0 | 1.0 | 6.0 | 0.00 | 0.01 | 0.00 | 88 | 1021.6 |
| 20260903020758 | 64 | 8 | 1.0 | 3.0 | 0.00 | 0.01 | 0.00 | 88 | 1021.6 |
| 20260903015758 | 64 | 8 | 1.0 | 2.0 | 0.00 | 0.01 | 0.00 | 88 | 1021.7 |
| 20260903015259 | 64 | 8 | 1.0 | 5.0 | 0.00 | 0.01 | 0.00 | 88 | 1021.7 |
| 20260903013758 | 64 | 352 | 1.0 | 0.0 | 0.00 | 0.01 | 0.00 | 88 | 1021.8 |
| 20260903013258 | 64 | 352 | 2.0 | 2.0 | 0.00 | 0.01 | 0.00 | 88 | 1021.8 |
| 20260903012758 | 64 | 352 | 2.0 | 3.0 | 0.00 | 0.01 | 0.00 | 88 | 1021.6 |
| 20260903012258 | 64 | 352 | 1.0 | 3.0 | 0.00 | 0.01 | 0.00 | 88 | 1021.6 |
| 20260903011758 | 64 | 339 | 1.0 | 3.0 | 0.00 | 0.01 | 0.00 | 88 | 1021.6 |
| 20260903011258 | 64 | 283 | 0.0 | 2.0 | 0.00 | 0.01 | 0.00 | 88 | 1021.7 |
| 20260903010758 | 64 | 283 | 0.0 | 3.0 | 0.00 | 0.01 | 0.00 | 88 | 1021.7 |
| 20260903010258 | 64 | 283 | 0.0 | 3.0 | 0.00 | 0.01 | 0.00 | 88 | 1021.7 |
| 20260903005759 | 64 | 284 | 0.0 | 2.0 | 0.00 | 0.01 | 0.00 | 88 | 1021.6 |
| 20260903005300 | 65 | 346 | 0.0 | 1.0 | 0.00 | 0.01 | 0.00 | 88 | 1021.6 |
| 20260903004800 | 65 | 346 | 0.0 | 3.0 | 0.00 | 0.01 | 0.00 | 87 | 1021.6 |
| 20260903003758 | 65 | 290 | 1.0 | 3.0 | 0.00 | 0.01 | 0.00 | 87 | 1021.6 |
| 20260903003258 | 65 | 347 | 1.0 | 2.0 | 0.00 | 0.01 | 0.00 | 87 | 1021.6 |
| 20260903002758 | 65 | 347 | 1.0 | 3.0 | 0.00 | 0.01 | 0.00 | 87 | 1021.5 |
| 20260903002258 | 65 | 347 | 0.0 | 3.0 | 0.00 | 0.01 | 0.00 | 87 | 1021.5 |
| 20260903001758 | 65 | 346 | 0.0 | 3.0 | 0.00 | 0.01 | 0.00 | 87 | 1021.5 |
| 20260903000758 | 65 | 5 | 1.0 | 2.0 | 0.00 | 0.01 | 0.00 | 86 | 1021.6 |
| 20260903000258 | 65 | 5 | 2.0 | 3.0 | 0.00 | 0.01 | 0.00 | 86 | 1021.6 |
| 20260902235758 | 66 | 5 | 1.0 | 5.0 | 0.00 | 0.01 | 0.00 | 86 | 1021.6 |
| 20260902234758 | 66 | 264 | 1.0 | 2.0 | 0.00 | 0.01 | 0.00 | 85 | 1021.6 |
| 20260902234258 | 66 | 30 | 1.0 | 3.0 | 0.00 | 0.01 | 0.00 | 85 | 1021.5 |
| 20260902233758 | 66 | 30 | 2.0 | 3.0 | 0.00 | 0.01 | 0.00 | 85 | 1021.5 |
| 20260902233258 | 66 | 341 | 2.0 | 3.0 | 0.00 | 0.01 | 0.00 | 85 | 1021.5 |
| 20260902232759 | 66 | 326 | 2.0 | 3.0 | 0.00 | 0.01 | 0.00 | 84 | 1021.5 |
| 20260902232258 | 66 | 355 | 1.0 | 3.0 | 0.00 | 0.01 | 0.00 | 84 | 1021.5 |
| 20260902230758 | 67 | 359 | 0.0 | 3.0 | 0.00 | 0.01 | 0.00 | 84 | 1021.5 |
| 20260902230258 | 67 | 359 | 0.0 | 3.0 | 0.00 | 0.01 | 0.00 | 83 | 1021.5 |
| 20260902225758 | 67 | 305 | 1.0 | 2.0 | 0.00 | 0.01 | 0.00 | 83 | 1021.5 |
| 20260902225258 | 67 | 305 | 2.0 | 3.0 | 0.00 | 0.01 | 0.00 | 83 | 1021.5 |
| 20260902224758 | 67 | 305 | 2.0 | 3.0 | 0.00 | 0.01 | 0.00 | 83 | 1021.5 |
| 20260902223759 | 67 | 11 | 1.0 | 2.0 | 0.00 | 0.01 | 0.00 | 82 | 1021.5 |
| 20260902223258 | 68 | 11 | 0.0 | 2.0 | 0.00 | 0.01 | 0.00 | 82 | 1021.5 |
| 20260902222758 | 68 | 11 | 1.0 | 2.0 | 0.00 | 0.01 | 0.00 | 81 | 1021.4 |
| 20260902222259 | 68 | 11 | 1.0 | 2.0 | 0.00 | 0.01 | 0.00 | 81 | 1021.4 |
| 20260902221259 | 68 | 10 | 1.0 | 2.0 | 0.00 | 0.01 | 0.00 | 81 | 1021.2 |
| 20260902220848 | 68 | 10 | 1.0 | 5.0 | 0.00 | 0.01 | 0.00 | 82 | 1021.2 |
| 20260902220259 | 68 | 0 | 1.0 | 5.0 | 0.00 | 0.01 | 0.00 | 82 | 1021.2 |
| 20260902215758 | 68 | 325 | 1.0 | 5.0 | 0.00 | 0.01 | 0.01 | 81 | 1021.0 |
| 20260902215258 | 69 | 6 | 0.0 | 5.0 | 0.00 | 0.01 | 0.01 | 80 | 1021.0 |
| 20260902214759 | 69 | 6 | 1.0 | 3.0 | 0.00 | 0.01 | 0.01 | 79 | 1021.0 |
| 20260902214258 | 69 | 6 | 2.0 | 5.0 | 0.00 | 0.01 | 0.01 | 79 | 1020.8 |
| 20260902213758 | 69 | 6 | 2.0 | 5.0 | 0.00 | 0.01 | 0.01 | 79 | 1020.8 |
| 20260902213259 | 69 | 6 | 2.0 | 5.0 | 0.00 | 0.01 | 0.01 | 80 | 1020.8 |
| 20260902212758 | 69 | 358 | 2.0 | 5.0 | 0.00 | 0.01 | 0.01 | 81 | 1020.9 |
| 20260902212258 | 69 | 359 | 2.0 | 3.0 | 0.00 | 0.01 | 0.01 | 81 | 1020.9 |
| 20260902211759 | 69 | 24 | 2.0 | 5.0 | 0.00 | 0.01 | 0.01 | 81 | 1020.9 |
| 20260902211258 | 69 | 17 | 2.0 | 5.0 | 0.00 | 0.01 | 0.01 | 80 | 1020.7 |
| 20260902210758 | 69 | 244 | 1.0 | 5.0 | 0.00 | 0.01 | 0.01 | 79 | 1020.7 |
| 20260902210259 | 69 | 17 | 0.0 | 5.0 | 0.00 | 0.01 | 0.01 | 78 | 1020.7 |
| 20260902205759 | 69 | 65 | 1.0 | 2.0 | 0.00 | 0.01 | 0.01 | 78 | 1020.9 |
| 20260902205259 | 69 | 352 | 2.0 | 3.0 | 0.00 | 0.01 | 0.01 | 78 | 1020.9 |
| 20260902204758 | 70 | 352 | 2.0 | 6.0 | 0.00 | 0.01 | 0.01 | 79 | 1020.9 |
| 20260902204259 | 70 | 309 | 2.0 | 6.0 | 0.00 | 0.01 | 0.01 | 78 | 1020.7 |
| 20260902203758 | 70 | 265 | 2.0 | 3.0 | 0.00 | 0.01 | 0.01 | 77 | 1020.7 |
| 20260902203258 | 70 | 350 | 2.0 | 3.0 | 0.00 | 0.01 | 0.01 | 76 | 1020.7 |
| 20260902202759 | 70 | 350 | 2.0 | 3.0 | 0.00 | 0.01 | 0.01 | 75 | 1020.6 |
| 20260902201759 | 70 | 0 | 2.0 | 3.0 | 0.00 | 0.01 | 0.01 | 75 | 1020.6 |
| 20260902201259 | 71 | 0 | 2.0 | 2.0 | 0.00 | 0.01 | 0.01 | 75 | 1020.5 |
| 20260902200258 | 71 | 359 | 2.0 | 5.0 | 0.00 | 0.01 | 0.01 | 74 | 1020.5 |
| 20260902195758 | 71 | 357 | 2.0 | 6.0 | 0.00 | 0.01 | 0.01 | 74 | 1020.4 |
| 20260902195258 | 71 | 8 | 2.0 | 6.0 | 0.00 | 0.01 | 0.01 | 74 | 1020.4 |
| 20260902194758 | 71 | 354 | 2.0 | 5.0 | 0.00 | 0.01 | 0.01 | 74 | 1020.4 |
| 20260902194258 | 71 | 8 | 2.0 | 3.0 | 0.00 | 0.01 | 0.01 | 74 | 1020.3 |
| 20260902193758 | 71 | 7 | 2.0 | 5.0 | 0.00 | 0.01 | 0.01 | 75 | 1020.3 |
| 20260902193259 | 71 | 0 | 2.0 | 7.0 | 0.00 | 0.01 | 0.01 | 75 | 1020.3 |
| 20260902192758 | 71 | 357 | 2.0 | 7.0 | 0.00 | 0.01 | 0.01 | 75 | 1020.2 |
| 20260902192259 | 71 | 0 | 2.0 | 6.0 | 0.00 | 0.01 | 0.01 | 75 | 1020.2 |
| 20260902191759 | 71 | 24 | 2.0 | 6.0 | 0.00 | 0.01 | 0.01 | 76 | 1020.2 |
| 20260902190758 | 71 | 116 | 3.0 | 6.0 | 0.00 | 0.01 | 0.01 | 78 | 1019.8 |
| 20260902190259 | 71 | 47 | 3.0 | 6.0 | 0.00 | 0.01 | 0.01 | 77 | 1019.8 |
| 20260902185759 | 71 | 14 | 3.0 | 7.0 | 0.00 | 0.01 | 0.01 | 78 | 1019.8 |
| 20260902184759 | 71 | 6 | 2.0 | 7.0 | 0.01 | 0.01 | 0.01 | 78 | 1019.8 |
| 20260902183259 | 71 | 285 | 3.0 | 5.0 | 0.01 | 0.01 | 0.01 | 80 | 1019.6 |
| 20260902182758 | 71 | 47 | 3.0 | 7.0 | 0.01 | 0.01 | 0.01 | 80 | 1019.4 |
| 20260902182259 | 71 | 60 | 3.0 | 7.0 | 0.01 | 0.01 | 0.01 | 79 | 1019.4 |
| 20260902181759 | 72 | 3 | 3.0 | 6.0 | 0.01 | 0.01 | 0.01 | 78 | 1019.4 |
| 20260902181258 | 73 | 357 | 2.0 | 6.0 | 0.01 | 0.01 | 0.01 | 76 | 1019.2 |
| 20260902180759 | 74 | 74 | 3.0 | 5.0 | 0.01 | 0.01 | 0.01 | 76 | 1019.2 |
| 20260902180259 | 74 | 54 | 3.0 | 6.0 | 0.01 | 0.01 | 0.01 | 71 | 1019.2 |
| 20260902175758 | 76 | 357 | 3.0 | 7.0 | 0.01 | 0.01 | 0.01 | 71 | 1019.1 |
| 20260902174759 | 78 | 192 | 2.0 | 6.0 | 0.00 | 0.00 | 0.00 | 64 | 1019.1 |
| 20260902174259 | 78 | 64 | 2.0 | 3.0 | 0.00 | 0.00 | 0.00 | 61 | 1018.9 |
| 20260902173759 | 79 | 41 | 2.0 | 6.0 | 0.00 | 0.00 | 0.00 | 58 | 1018.9 |
| 20260902173259 | 79 | 27 | 1.0 | 6.0 | 0.00 | 0.00 | 0.00 | 56 | 1018.9 |
| 20260902172259 | 80 | 12 | 0.0 | 2.0 | 0.00 | 0.00 | 0.00 | 56 | 1018.9 |
| 20260902171759 | 81 | 5 | 1.0 | 2.0 | 0.00 | 0.00 | 0.00 | 55 | 1018.9 |
| 20260902171300 | 81 | 5 | 2.0 | 3.0 | 0.00 | 0.00 | 0.00 | 54 | 1018.7 |
| 20260902170759 | 82 | 5 | 2.0 | 3.0 | 0.00 | 0.00 | 0.00 | 52 | 1018.7 |
| 20260902170259 | 82 | 39 | 1.0 | 3.0 | 0.00 | 0.00 | 0.00 | 53 | 1018.7 |
| 20260902165759 | 83 | 63 | 2.0 | 3.0 | 0.00 | 0.00 | 0.00 | 52 | 1018.5 |
| 20260902165259 | 84 | 63 | 2.0 | 3.0 | 0.00 | 0.00 | 0.00 | 51 | 1018.5 |
| 20260902164759 | 84 | 71 | 2.0 | 3.0 | 0.00 | 0.00 | 0.00 | 52 | 1018.5 |
| 20260902164259 | 85 | 67 | 2.0 | 5.0 | 0.00 | 0.00 | 0.00 | 50 | 1018.5 |
| 20260902163759 | 85 | 100 | 2.0 | 5.0 | 0.00 | 0.00 | 0.00 | 46 | 1018.5 |
| 20260902163259 | 86 | 162 | 2.0 | 5.0 | 0.00 | 0.00 | 0.00 | 46 | 1018.5 |
| 20260902162759 | 86 | 195 | 2.0 | 5.0 | 0.00 | 0.00 | 0.00 | 44 | 1018.4 |
| 20260902162259 | 86 | 204 | 2.0 | 3.0 | 0.00 | 0.00 | 0.00 | 47 | 1018.4 |
| 20260902160800 | 85 | 298 | 2.0 | 6.0 | 0.00 | 0.00 | 0.00 | 45 | 1018.3 |
| 20260902155759 | 86 | 352 | 2.0 | 6.0 | 0.00 | 0.00 | 0.00 | 43 | 1018.4 |
| 20260902155259 | 86 | 196 | 2.0 | 8.0 | 0.00 | 0.00 | 0.00 | 43 | 1018.4 |
| 20260902154259 | 87 | 203 | 2.0 | 7.0 | 0.00 | 0.00 | 0.00 | 42 | 1018.4 |
| 20260902153759 | 87 | 158 | 2.0 | 7.0 | 0.00 | 0.00 | 0.00 | 43 | 1018.4 |
| 20260902153300 | 87 | 97 | 2.0 | 5.0 | 0.00 | 0.00 | 0.00 | 42 | 1018.4 |
| 20260902152759 | 87 | 98 | 2.0 | 5.0 | 0.00 | 0.00 | 0.00 | 42 | 1018.5 |
| 20260902152259 | 88 | 43 | 2.0 | 6.0 | 0.00 | 0.00 | 0.00 | 42 | 1018.5 |
| 20260902151759 | 88 | 217 | 2.0 | 6.0 | 0.00 | 0.00 | 0.00 | 42 | 1018.5 |
| 20260902151300 | 88 | 207 | 2.0 | 6.0 | 0.00 | 0.00 | 0.00 | 41 | 1018.7 |
| 20260902150759 | 88 | 74 | 2.0 | 6.0 | 0.00 | 0.00 | 0.00 | 42 | 1018.7 |
| 20260902150301 | 88 | 49 | 2.0 | 6.0 | 0.00 | 0.00 | 0.00 | 41 | 1018.7 |
| 20260902145759 | 88 | 72 | 2.0 | 6.0 | 0.00 | 0.00 | 0.00 | 42 | 1018.6 |
| 20260902145301 | 87 | 350 | 2.0 | 6.0 | 0.00 | 0.00 | 0.00 | 43 | 1018.6 |
| 20260902144800 | 87 | 89 | 2.0 | 6.0 | 0.00 | 0.00 | 0.00 | 42 | 1018.6 |
| 20260902144300 | 87 | 162 | 2.0 | 6.0 | 0.00 | 0.00 | 0.00 | 42 | 1018.7 |
| 20260902143759 | 87 | 196 | 2.0 | 6.0 | 0.00 | 0.00 | 0.00 | 42 | 1018.7 |
| 20260902142759 | 87 | 186 | 2.0 | 7.0 | 0.00 | 0.00 | 0.00 | 43 | 1019.0 |
| 20260902142300 | 87 | 32 | 2.0 | 7.0 | 0.00 | 0.00 | 0.00 | 42 | 1019.0 |
| 20260902141759 | 87 | 11 | 3.0 | 7.0 | 0.00 | 0.00 | 0.00 | 43 | 1019.0 |
| 20260902140759 | 87 | 180 | 3.0 | 7.0 | 0.00 | 0.00 | 0.00 | 42 | 1019.1 |
| 20260902140259 | 87 | 129 | 2.0 | 7.0 | 0.00 | 0.00 | 0.00 | 42 | 1019.1 |
| 20260902135801 | 87 | 161 | 2.0 | 7.0 | 0.00 | 0.00 | 0.00 | 44 | 1019.0 |
| 20260902135300 | 86 | 357 | 2.0 | 7.0 | 0.00 | 0.00 | 0.00 | 43 | 1019.0 |
| 20260902134800 | 86 | 30 | 2.0 | 7.0 | 0.00 | 0.00 | 0.00 | 44 | 1019.0 |
| 20260902134259 | 86 | 200 | 2.0 | 7.0 | 0.00 | 0.00 | 0.00 | 44 | 1019.2 |
| 20260902133759 | 86 | 295 | 3.0 | 6.0 | 0.00 | 0.00 | 0.00 | 44 | 1019.2 |
| 20260902133300 | 86 | 149 | 3.0 | 8.0 | 0.00 | 0.00 | 0.00 | 44 | 1019.2 |
| 20260902132800 | 86 | 231 | 3.0 | 8.0 | 0.00 | 0.00 | 0.00 | 44 | 1019.2 |
| 20260902132259 | 85 | 176 | 2.0 | 7.0 | 0.00 | 0.00 | 0.00 | 44 | 1019.2 |
| 20260902131300 | 85 | 335 | 2.0 | 6.0 | 0.00 | 0.00 | 0.00 | 45 | 1019.2 |
| 20260902130800 | 85 | 118 | 2.0 | 5.0 | 0.00 | 0.00 | 0.00 | 47 | 1019.2 |
| 20260902125800 | 85 | 184 | 2.0 | 5.0 | 0.00 | 0.00 | 0.00 | 50 | 1019.3 |
| 20260902125300 | 85 | 179 | 2.0 | 3.0 | 0.00 | 0.00 | 0.00 | 47 | 1019.3 |
| 20260902124759 | 84 | 193 | 2.0 | 3.0 | 0.00 | 0.00 | 0.00 | 49 | 1019.3 |
| 20260902124300 | 84 | 262 | 2.0 | 6.0 | 0.00 | 0.00 | 0.00 | 49 | 1019.5 |
| 20260902123759 | 84 | 206 | 2.0 | 6.0 | 0.00 | 0.00 | 0.00 | 47 | 1019.5 |
| 20260902123300 | 84 | 236 | 2.0 | 6.0 | 0.00 | 0.00 | 0.00 | 50 | 1019.5 |
| 20260902122759 | 84 | 18 | 2.0 | 6.0 | 0.00 | 0.00 | 0.00 | 50 | 1019.7 |
| 20260902122259 | 83 | 349 | 2.0 | 5.0 | 0.00 | 0.00 | 0.00 | 48 | 1019.7 |
| 20260902121759 | 83 | 111 | 2.0 | 5.0 | 0.00 | 0.00 | 0.00 | 52 | 1019.7 |
| 20260902121301 | 82 | 275 | 2.0 | 5.0 | 0.00 | 0.00 | 0.00 | 51 | 1019.9 |
| 20260902120759 | 82 | 13 | 2.0 | 5.0 | 0.00 | 0.00 | 0.00 | 54 | 1019.9 |
| 20260902115759 | 81 | 309 | 2.0 | 6.0 | 0.00 | 0.00 | 0.00 | 55 | 1020.1 |
| 20260902114259 | 80 | 201 | 2.0 | 5.0 | 0.00 | 0.00 | 0.00 | 60 | 1020.1 |
| 20260902113759 | 80 | 202 | 2.0 | 3.0 | 0.00 | 0.00 | 0.00 | 61 | 1020.1 |
| 20260902112759 | 80 | 202 | 2.0 | 5.0 | 0.00 | 0.00 | 0.00 | 57 | 1020.3 |
| 20260902112300 | 80 | 201 | 2.0 | 5.0 | 0.00 | 0.00 | 0.00 | 57 | 1020.3 |
| 20260902111759 | 79 | 202 | 2.0 | 5.0 | 0.00 | 0.00 | 0.00 | 57 | 1020.3 |
| 20260902111259 | 79 | 202 | 2.0 | 5.0 | 0.00 | 0.00 | 0.00 | 57 | 1020.5 |
| 20260902110759 | 78 | 200 | 2.0 | 3.0 | 0.00 | 0.00 | 0.00 | 59 | 1020.5 |
| 20260902110259 | 78 | 200 | 2.0 | 3.0 | 0.00 | 0.00 | 0.00 | 61 | 1020.5 |
| 20260902105759 | 78 | 201 | 2.0 | 3.0 | 0.00 | 0.00 | 0.00 | 61 | 1020.9 |
| 20260902105259 | 78 | 200 | 2.0 | 5.0 | 0.00 | 0.00 | 0.00 | 61 | 1020.9 |
| 20260902104800 | 77 | 200 | 2.0 | 5.0 | 0.00 | 0.00 | 0.00 | 61 | 1020.9 |
| 20260902103759 | 77 | 201 | 2.0 | 5.0 | 0.00 | 0.00 | 0.00 | 60 | 1021.0 |
| 20260902103259 | 77 | 201 | 2.0 | 5.0 | 0.00 | 0.00 | 0.00 | 62 | 1021.0 |
| 20260902102759 | 77 | 203 | 2.0 | 5.0 | 0.00 | 0.00 | 0.00 | 61 | 1021.1 |
| 20260902102300 | 77 | 202 | 2.0 | 5.0 | 0.00 | 0.00 | 0.00 | 63 | 1021.1 |
| 20260902101759 | 77 | 196 | 2.0 | 5.0 | 0.00 | 0.00 | 0.00 | 63 | 1021.1 |
| 20260902101259 | 76 | 197 | 2.0 | 5.0 | 0.00 | 0.00 | 0.00 | 63 | 1021.2 |
| 20260902100300 | 76 | 186 | 2.0 | 5.0 | 0.00 | 0.00 | 0.00 | 63 | 1021.2 |
| 20260902095759 | 76 | 182 | 2.0 | 5.0 | 0.00 | 0.00 | 0.00 | 62 | 1021.1 |
| 20260902095259 | 76 | 213 | 2.0 | 5.0 | 0.00 | 0.00 | 0.00 | 63 | 1021.1 |
| 20260902093800 | 75 | 211 | 2.0 | 5.0 | 0.00 | 0.00 | 0.00 | 65 | 1021.3 |